Regional Weather Roundup
Issued by NWS

Home | Current Version | Previous Version | Graphics & Text | Print | Product List | Glossary On
Versions: 1 2 3 4 5 6 7 8 9 10 11 12 13 14 15 16 17 18 19 20 21 22 23 24 25 26 27 28 29 30 31 32 33 34 35 36 37 38 39 40 41 42 43 44 45 46 47 48 49 50
000
ASUS43 KTOP 211459
RWRKS

WEATHER ROUNDUP FOR KANSAS
NATIONAL WEATHER SERVICE GOODLAND KS
1000 AM CDT THU SEP 21 2017

NOTE:  "FAIR" INDICATES FEW OR NO CLOUDS BELOW 12,000 FEET WITH NO
SIGNIFICANT WEATHER AND/OR OBSTRUCTIONS TO VISIBILITY.

KSZ001>006-013>018-027>032-041>047-211600-
NORTHWEST KANSAS

CITY           SKY/WX    TMP DP  RH WIND       PRES   REMARKS
GOODLAND       SUNNY     67  44  43 S13       29.77R
HAYS           SUNNY     74  62  66 S12       29.81F
HILL CITY      SUNNY     75  52  44 S8        29.79F
RUSSELL        SUNNY     78  68  71 S15       29.80S
$$

KSZ061>065-074>080-084>089-211600-
SOUTHWEST KANSAS

CITY           SKY/WX    TMP DP  RH WIND       PRES   REMARKS
DODGE CITY     SUNNY     75  61  61 S18       29.84R
ELKHART          N/A     72  47  41 SW10        N/A
GARDEN CITY    SUNNY     72  47  40 S13       29.82S
GREAT BEND     SUNNY     78  69  73 S16       29.82S
LIBERAL        SUNNY     68  51  54 S12       29.86S
$$

KSZ066>073-081>083-090>101-211600-
SOUTHEAST KANSAS

CITY           SKY/WX    TMP DP  RH WIND       PRES   REMARKS
CHANUTE        SUNNY     81  73  76 S14       29.93R
COFFEYVILLE    SUNNY     82  73  74 S15       29.92R
HUTCHINSON     SUNNY     82  72  71 S18G28    29.84R
MEDICINE LODGE   N/A     79  69  71 SE10      29.83S
NEWTON         SUNNY     81  71  71 S20       29.86S
WICHITA INTL   MOSUNNY   83  72  69 S24       29.85R
WICHITA JABRA  SUNNY     81  73  76 S20       29.86R
WINFIELD       SUNNY     83  73  72 S18G26    29.88R
$$

KSZ007>012-019>026-033>040-048>060-102>105-211600-
NORTHEAST KANSAS

CITY           SKY/WX    TMP DP  RH WIND       PRES   REMARKS
CONCORDIA      SUNNY     78  73  84 S15       29.82S
EMPORIA        SUNNY     80  71  74 S15G26    29.88R
LAWRENCE       SUNNY     82  73  74 SE15      29.91R
MANHATTAN      SUNNY     83  72  69 S12G21    29.84S
OLATHE IND     SUNNY     80  71  74 S14       29.94R
OLATHE EXE     SUNNY     79  72  79 S17G23    29.94S
SALINA         SUNNY     84  71  65 S16       29.82R
TOPEKA BILLARD SUNNY     82  73  74 S12       29.89R
TOPEKA FORBES  SUNNY     83  73  72 S14       29.89S
$$




USA.gov is the U.S. government's official web portal to all federal, state and local government web resources and services.